Location: Blaenwaun
(51.9144°N, 4.5667°W)
Time: 18:55:20
(UTC+00:00)

Daily predictions for brighter satellites

Satellite Brightness Start Highest point End
(mag) Time Altitude Azimuth Time Altitude Azimuth Time Altitude Azimuth
Cosmos 1626 4.3 21:25:32 10° ESE 21:27:09 12° E 21:28:46 10° ENE
Cosmos 1980 Rocket 2.3 21:23:21 10° SSW 21:29:01 85° WNW 21:34:41 10° NNE
Cosmos 1140 Rocket 4.5 21:25:27 10° NW 21:30:25 44° WSW 21:35:21 10° S
Cosmos 1953 3.3 21:26:51 10° N 21:30:35 34° ENE 21:34:19 10° SE
ATLAS CENTAUR R/B 3.5 21:29:00 10° NNW 21:32:22 23° NNE 21:35:53 10° E
Terra 2.2 21:31:26 10° SE 21:36:03 53° ENE 21:40:42 10° N
SPOT 1/Viking Rocket 4.0 21:31:08 10° S 21:36:13 60° WSW 21:41:20 10° NNW
CENTAUR R/B 2.7 21:31:21 10° SSW 21:37:07 52° ESE 21:44:00 10° NE
Cosmos 292 Rocket 4.3 21:34:56 10° S 21:39:27 41° ESE 21:43:59 10° NE
USA 245 4.3 21:36:06 10° S 21:40:26 60° W 21:45:49 10° NNW
Cosmos 1674 3.8 21:37:46 10° SSE 21:40:59 28° E 21:44:12 10° NNE
Cosmos 220 Rocket 4.1 21:36:49 10° S 21:41:03 57° ESE 21:45:15 10° NNE
Cosmos 1908 4.0 21:41:04 10° N 21:44:47 40° ENE 21:48:21 11° SE
Cosmos 1452 Rocket 4.1 21:40:33 10° S 21:45:23 37° ESE 21:50:14 10° NE
SL-23 DEB 4.1 21:42:03 10° WSW 21:45:42 67° SSE 21:51:40 10° E
USA 267 3.5 21:39:48 10° ESE 21:46:20 77° NNE 21:52:54 10° WNW
CARTOSAT-1 3.8 21:42:27 10° S 21:46:45 68° WSW 21:51:05 10° NNW
JB-3 4.3 21:43:38 10° NNE 21:47:33 84° ESE 21:51:31 10° SSW
Cosmos 2100 Rocket 4.2 21:41:33 10° N 21:47:55 63° ENE 21:54:13 10° SSE
Cosmos 1844 Rocket 3.3 21:43:44 10° NNW 21:49:17 51° NE 21:54:49 10° SE
Cosmos 2056 Rocket 3.6 21:44:58 10° SSW 21:50:10 82° WNW 21:55:30 10° NNE
Aureole 1 Rocket 4.2 21:47:07 10° NNW 21:52:03 52° ENE 21:58:27 10° SE
Cosmos 1707 2.7 21:49:23 10° S 21:53:16 89° E 21:57:11 10° N
Cosmos 1975 Rocket 3.4 21:49:23 10° SSE 21:53:33 48° E 21:57:46 10° NNE
Cosmos 1850 Rocket 4.2 21:48:20 10° NNW 21:53:41 72° ENE 21:58:43 11° SSE
ARIANE 5 R/B 3.1 21:49:22 10° S 21:53:44 61° WSW 21:58:12 10° NNW
Cosmos 1025 Rocket 4.0 21:55:41 11° SSE 21:59:19 31° E 22:03:13 10° NNE
Cosmos 2263 Rocket 3.2 21:55:03 10° NW 22:00:20 41° WSW 22:05:37 10° S
Cosmos 2333 Rocket 4.0 22:00:02 10° SE 22:03:11 15° E 22:06:21 10° ENE
CZ-4B DEB 4.2 22:08:07 13° SSE 22:10:49 86° WSW 22:14:01 10° NNW
Cosmos 1340 4.2 22:10:26 13° SE 22:12:44 22° E 22:15:41 10° NE
Cosmos 1420 Rocket 4.1 22:07:56 10° SSW 22:13:07 81° WNW 22:18:22 10° NNE
Cosmos 2173 Rocket 4.1 22:07:52 10° N 22:14:16 87° E 22:20:19 12° S
Cosmos 1726 4.0 22:11:15 10° NNW 22:14:17 25° W 22:17:19 10° SSW
Cosmos 2016 Rocket 4.1 22:09:57 10° N 22:16:03 63° ENE 22:21:23 14° SSE
Cosmos 1844 3.9 22:14:36 10° NNW 22:20:10 68° NE 22:25:07 13° SE
In-Cosmos 22 4.1 22:15:16 10° SSW 22:20:34 84° WNW 22:25:54 10° NNE
Cosmos 1727 Rocket 4.3 22:14:58 10° SSW 22:21:18 74° W 22:27:37 10° N
Cosmos 1741 Rocket 4.1 22:18:00 10° NNW 22:23:15 74° WSW 22:27:44 14° SSE
Cosmos 1725 Rocket 4.2 22:18:15 10° N 22:24:25 63° ENE 22:29:40 15° SSE
Cosmos 2285 Rocket 4.3 22:18:45 10° SSW 22:25:12 77° WNW 22:31:41 10° NNE
NOSS 3-2 (C) 3.4 22:20:26 10° SW 22:26:09 80° SE 22:32:51 10° NE
NOSS 3-2 (A) 3.8 22:22:37 10° SW 22:28:24 72° NW 22:35:13 10° NE
ALOS 2 4.3 22:26:00 10° ESE 22:29:31 24° ENE 22:33:03 10° N
Cosmos 1802 Rocket 4.0 22:23:17 10° N 22:29:33 89° E 22:35:07 14° S
ERS-1 Rocket 3.9 22:25:33 10° S 22:30:19 42° W 22:35:07 10° NNW
Cosmos 1544 Rocket 3.6 22:29:51 10° NNW 22:34:21 86° W 22:37:55 16° S
Cosmos 2219 Rocket 3.6 22:31:32 14° SE 22:34:40 22° ESE 22:38:56 10° NE
GEOS 3 Rocket 4.0 22:33:47 15° SSE 22:38:07 58° SW 22:43:25 10° NW
KORONAS-FOTON 4.1 22:35:14 10° SSW 22:39:02 68° WNW 22:42:50 10° N
Cosmos 1455 Rocket 3.8 22:35:35 10° NNW 22:39:53 49° W 22:43:49 12° SSW
Cosmos 389 Rocket 4.4 22:37:57 10° NNE 22:40:33 20° ENE 22:42:52 11° ESE
SPOT 5 4.3 22:37:48 10° SSW 22:42:33 35° W 22:47:10 10° NNW
ATLAS 3B R/B 3.6 22:39:32 15° SSE 22:43:32 27° ESE 22:49:01 10° ENE
Cosmos 1461 2.9 22:39:57 10° NW 22:44:16 77° SW 22:47:11 19° SSE
SL-16 R/B 2.4 22:40:29 10° SW 22:46:10 75° WNW 22:51:52 10° NNE
Cosmos 1900 4.3 22:45:50 10° NW 22:50:47 84° NE 22:54:40 16° SE
Cosmos 2322 Rocket 2.3 22:46:07 10° SSW 22:51:50 84° WNW 22:57:36 10° NNE
Meteor 2-5 Rocket 4.0 22:47:48 17° SSE 22:51:54 51° E 22:57:17 10° NNE
Cosmos 1346 Rocket 4.4 22:51:09 15° SE 22:53:07 21° E 22:56:11 10° NE
Cosmos 2360 Rocket 2.2 22:47:46 10° SSW 22:53:21 66° ESE 22:58:58 10° NE
COSMOS 2428 3.9 22:50:46 16° SE 22:53:52 25° ESE 22:58:30 10° NE
USA 215 3.2 22:47:21 10° ENE 22:53:53 65° SE 23:00:23 10° SW
Cosmos 2061 Rocket 4.2 22:50:02 10° NNW 22:56:30 77° W 23:01:48 16° S
Lacrosse 5 rocket 2.9 22:57:45 14° ESE 22:57:45 14° ESE 22:59:17 10° E
SL-8 R/B 3.9 22:53:35 10° W 22:58:13 50° SSW 23:02:46 10° ESE
Genesis I 3.3 22:54:36 10° SW 22:58:29 77° NW 23:02:28 10° NE
Lacrosse 5 3.2 22:55:27 10° WNW 22:59:37 26° SW 23:02:23 16° S
Cosmos 2237 4.2 22:54:18 10° SSW 23:00:01 85° ESE 23:05:44 10° NNE
Cosmos 2322 4.3 22:57:38 18° SSE 23:01:20 39° ESE 23:06:32 10° NE
USA 238 DEB 4.2 22:55:13 10° WSW 23:01:49 65° NW 23:08:48 10° NE
Cosmos 1626 2.4 22:58:49 15° SSW 23:01:50 64° WNW 23:05:32 10° N
USA 238 4.1 22:55:19 10° WSW 23:01:55 65° NW 23:08:55 10° NE
Cosmos 1953 4.0 23:03:26 10° NNW 23:06:52 26° W 23:10:16 10° SSW
Cosmos 1455 3.8 23:04:29 10° N 23:07:47 26° ENE 23:10:18 14° ESE
Cosmos 1536 Rocket 3.6 23:05:04 18° S 23:08:20 82° E 23:12:50 10° NNE
Cosmos 1110 Rocket 4.0 23:05:23 11° SSW 23:10:21 88° ESE 23:15:36 10° NNE
DNEPR-1 R/B 3.4 23:06:28 10° NW 23:10:44 89° SW 23:13:48 19° SE
Meteor 2-10 Rocket 3.7 23:05:35 10° N 23:10:47 65° ENE 23:14:19 20° SSE
Cosmos 2278 Rocket 3.1 23:05:30 10° NNW 23:10:56 43° NE 23:16:18 10° ESE
ATLAS CENTAUR R/B 1.5 23:07:32 10° NW 23:11:49 82° NE 23:15:12 17° SE
Cosmos 1300 2.9 23:08:58 10° NNW 23:12:46 66° W 23:15:05 22° S
Terra 3.6 23:10:15 10° SW 23:14:06 24° W 23:17:58 10° NW
Cosmos 405 3.5 23:13:02 10° NNW 23:16:24 50° W 23:18:19 22° SSW
Cosmos 1674 4.5 23:13:13 10° SW 23:16:26 27° WNW 23:19:40 10° N
CENTAUR R/B 3.5 23:21:39 10° WSW 23:27:51 55° NNW 23:35:19 10° NE
Cosmos 2123 Rocket 4.4 23:22:29 12° SSW 23:28:21 64° WNW 23:34:40 10° N
USA 267 3.5 23:24:45 17° SSE 23:29:38 51° SW 23:35:59 10° WNW
Cosmos 968 Rocket 3.4 23:25:23 10° NNW 23:30:32 89° WSW 23:33:59 21° SSE
SL-14 R/B 4.0 23:28:37 15° SSW 23:31:48 50° WNW 23:35:45 10° N
Cosmos 1844 Rocket 3.7 23:27:56 10° NW 23:33:02 35° WSW 23:36:40 17° SSW
Cosmos 2333 4.2 23:35:01 15° SSW 23:39:57 82° ESE 23:45:43 10° NNE
Cosmos 2233 Rocket 4.3 23:34:45 10° NNW 23:40:48 60° W 23:45:16 19° SSW
Cosmos 2058 Rocket 3.6 23:39:41 10° N 23:44:06 51° ENE 23:46:54 21° SE
Cosmos 1447 Rocket 4.5 23:40:09 19° S 23:44:49 89° ESE 23:51:04 10° N
COBE Rocket 4.1 23:41:58 22° S 23:45:18 71° W 23:50:20 10° NNW
Spot 4 4.4 23:42:45 20° SSW 23:45:47 48° W 23:50:26 10° NNW
Cosmos 2228 3.2 23:41:54 10° NNW 23:46:17 67° W 23:48:51 24° S
Cosmos 967 Rocket 4.5 23:40:01 10° NW 23:46:23 82° SW 23:51:28 17° SSE
Cosmos 2333 Rocket 2.2 23:41:58 17° SSW 23:46:32 77° ESE 23:52:17 10° NNE
OPS 8737 4.4 23:45:13 23° SSW 23:47:18 60° SE 23:50:19 10° NE
Cosmos 1340 3.9 23:45:08 13° SW 23:48:07 36° WNW 23:51:39 10° N
Cosmos 1867 3.6 23:47:03 10° NW 23:52:35 89° NE 23:57:06 16° SE
